Karlovy, Czech Republic

1:33 PM CET on December 03, 2016 (GMT +0100)
Karlovy Vary

Weather History for LKKV - January, 2013

Change the Weather History Date:

Sunday, January 20, 2013

  Actual Average (EDQM) Record (EDQM)
Temperature  
Mean Temperature 18 °F -  
Max Temperature 21 °F 33 °F 50 °F (2007)
Min Temperature 15 °F 26 °F 15 °F (2013)
Degree Days  
Heating Degree Days 47    
Moisture  
Dew Point 17 °F    
Average Humidity 93    
Maximum Humidity 100    
Minimum Humidity 86    
Precipitation  
Precipitation 0.00 in - - ()
Sea Level Pressure  
Sea Level Pressure 29.40 in    
Wind  
Wind Speed 7 mph ()    
Max Wind Speed 13 mph    
Max Gust Speed -    
Visibility 2.5 miles    
Events Rain , Snow    
Averages and records for this station are not official NWS values.
T = Trace of Precipitation, MM = Missing Value Source: Averaged Metar Reports

Daily Weather History Graph

Daily Weather History Graph

Search for Another Location

Airport or City:

Trip Planner

Search our weather history database for the weather conditions in past years. The results will help you decide how hot, cold, wet, or windy it might be!

Date:

Astronomy

Jan. 20, 2013 Rise Set
Actual Time 7:57 AM CET 4:42 PM CET
Civil Twilight 7:20 AM CET 5:18 PM CET
Nautical Twilight 6:40 AM CET 5:58 PM CET
Astronomical Twilight 6:02 AM CET 6:37 PM CET
Moon 11:36 AM CET (1/20) 2:08 AM CET (1/20)
Length of Visible Light 9h 57m
Length of Day
8h 44m
Waxing Gibbous, 64% of the Moon is Illuminated
Jan 20
Waxing Gibbous
Jan 27
Full
Feb 3
Last Quarter
Feb 10
New
Feb 17
First Quarter

Hourly Weather History & Observations

Time (CET) Temp. Windchill Dew Point Humidity Pressure Visibility Wind Dir Wind Speed Gust Speed Precip Events Conditions
12:00 AM 17.6 °F 9.3 °F 14.0 °F 86% 29.44 in 3.7 mi NE 5.8 mph - N/A   Overcast
1:00 AM 15.8 °F 7.2 °F 14.0 °F 93% 29.42 in 3.7 mi ENE 5.8 mph - N/A   Overcast
2:00 AM 15.8 °F 6.1 °F 14.0 °F 93% 29.42 in 3.1 mi NE 6.9 mph - N/A   Overcast
3:00 AM 15.8 °F 6.1 °F 14.0 °F 93% 29.42 in 3.1 mi NE 6.9 mph - N/A   Overcast
4:00 AM 15.8 °F 5.1 °F 14.0 °F 93% 29.42 in 3.1 mi NE 8.1 mph - N/A   Overcast
5:00 AM 15.8 °F 6.1 °F 14.0 °F 93% 29.42 in 3.1 mi NE 6.9 mph - N/A   Overcast
6:00 AM 17.6 °F 7.3 °F 14.0 °F 86% 29.39 in 3.1 mi ENE 8.1 mph - N/A   Overcast
7:00 AM 17.6 °F 7.3 °F 15.8 °F 93% 29.39 in 3.1 mi ENE 8.1 mph - N/A   Overcast
7:30 AM 17.6 °F 5.0 °F 15.8 °F 93% 29.39 in 3.1 mi East 11.5 mph - N/A   Overcast
8:00 AM 17.6 °F 7.3 °F 15.8 °F 93% 29.42 in 2.8 mi ENE 8.1 mph - N/A   Overcast
8:30 AM 17.6 °F 8.2 °F 15.8 °F 93% 29.42 in 1.9 mi East 6.9 mph - N/A   Overcast
9:00 AM 17.6 °F 4.3 °F 15.8 °F 93% 29.42 in 2.5 mi East 12.7 mph - N/A   Mostly Cloudy
9:30 AM 17.6 °F 5.7 °F 15.8 °F 93% 29.42 in 2.2 mi East 10.4 mph - N/A   Overcast
10:00 AM 17.6 °F 7.3 °F 15.8 °F 93% 29.42 in - East 8.1 mph - N/A   Overcast
10:30 AM 17.6 °F 5.0 °F 15.8 °F 93% 29.42 in 1.2 mi East 11.5 mph - N/A   Overcast
11:00 AM 17.6 °F 6.4 °F 15.8 °F 93% 29.42 in 1.2 mi ENE 9.2 mph - N/A   Overcast
11:30 AM 19.4 °F 10.4 °F 17.6 °F 93% 29.42 in 1.2 mi East 6.9 mph - N/A   Overcast
12:00 PM 19.4 °F 8.6 °F 17.6 °F 93% 29.42 in 1.5 mi East 9.2 mph - N/A   Overcast
12:30 PM 19.4 °F 7.2 °F 17.6 °F 93% 29.42 in 1.6 mi East 11.5 mph - N/A   Overcast
1:00 PM 19.4 °F 9.5 °F 17.6 °F 93% 29.39 in 1.7 mi East 8.1 mph - N/A   Overcast
1:30 PM 19.4 °F 9.5 °F 17.6 °F 93% 29.39 in 1.9 mi East 8.1 mph - N/A   Overcast
2:00 PM 19.4 °F 7.9 °F 17.6 °F 93% 29.39 in - East 10.4 mph - N/A   Overcast
2:30 PM 19.4 °F 8.6 °F 17.6 °F 93% 29.36 in 1.9 mi ENE 9.2 mph - N/A   Overcast
3:00 PM 19.4 °F 9.5 °F 17.6 °F 93% 29.36 in - East 8.1 mph - N/A   Mostly Cloudy
3:30 PM 19.4 °F 10.4 °F 17.6 °F 93% 29.39 in 1.9 mi ENE 6.9 mph - N/A   Overcast
4:00 PM 19.4 °F 10.4 °F 17.6 °F 93% 29.39 in 1.6 mi NE 6.9 mph - N/A   Overcast
4:30 PM 19.4 °F 10.4 °F 17.6 °F 93% 29.39 in 1.5 mi NE 6.9 mph - N/A   Overcast
5:00 PM 19.4 °F 8.6 °F 17.6 °F 93% 29.36 in 1.7 mi NE 9.2 mph - N/A   Overcast
5:30 PM 19.4 °F 10.4 °F 17.6 °F 93% 29.39 in 2.5 mi ENE 6.9 mph - N/A   Overcast
6:00 PM 19.4 °F 12.8 °F 17.6 °F 93% 29.39 in 3.1 mi ENE 4.6 mph - N/A   Overcast
6:30 PM 19.4 °F 11.5 °F 17.6 °F 93% 29.39 in 3.1 mi ENE 5.8 mph - N/A   Overcast
7:00 PM 19.4 °F 10.4 °F 17.6 °F 93% 29.39 in 3.7 mi NE 6.9 mph - N/A Snow Light Snow
7:30 PM 19.4 °F 10.4 °F 17.6 °F 93% 29.39 in 3.1 mi NE 6.9 mph - N/A Snow Light Snow
8:00 PM 19.4 °F 11.5 °F 19.4 °F 100% 29.39 in 2.5 mi ENE 5.8 mph - N/A Snow Light Snow
9:00 PM 21.2 °F 14.9 °F 19.4 °F 93% 29.36 in 3.1 mi NE 4.6 mph - N/A Rain , Snow Light Freezing Rain
10:00 PM 21.2 °F 12.6 °F 19.4 °F 93% 29.39 in 2.5 mi NE 6.9 mph - N/A Rain Light Freezing Rain
11:00 PM 21.2 °F 12.6 °F 19.4 °F 93% 29.36 in 3.7 mi NE 6.9 mph - N/A Rain Light Freezing Rain